STARLINK-2543, 48278

Orbit data source: Space-Track

STARLINK-2543, 48278 is a payload satellite owned by SpaceX/Seattle (US) in LEO that was launched on Thu, 29 Apr 2021 UTC via an FALCON 9 launch vehicle from the Air Force Eastern Test Range (AFETR). Payload-class satellites include a variety of spacecraft equipped with specific instruments for various scientific and technological missions. These include communications satellites like Starlink; space stations such as the ISS; scientific satellites like the Hubble; Earth observation satellites from companies like Planet Labs, Umbra, and HawkEye 360; GPS; miniature CubeSats for education and research; and military/defense satellites.

Loading next visibility...
Identifier
48278, 2021-036C
Orbit
LEO
Country
Flag of USUS
Related business
Manufacturer
SpaceX/Seattle
Mission
Operational Commercial Communications
Bus & Motor
STARLINK, Unknown motor
Mass
260 kg wet, ~248 kg dry
Launch date (UTC)
2021-04-29 (5 years ago)
Launch vehicle
FALCON 9
Launch site
Air Force Eastern Test Range (AFETR)
Object type
Payload
Rocket body
Debris
Shape & HBR
Box + 1 Pan, 10.1 m
Radar Cross Section
13.562 m², Large (>1 m²)

Expand to show TLE details & history
Last TLE update: 7 hours ago

TLE from 7 hours ago
0 STARLINK-2543
1 48278U 21036C   26036.40138276 -.00000825  00000-0 -36516-4 0  9991
2 48278  53.0557 171.6527 0001101  93.7241 266.3874 15.06410899264218
Epoch: 2026-02-05T09:37Z
TLE epoch observation values (Epoch: 2026-02-05T09:37:59.470Z)
Latitude
-0.00001°
Longitude
-108.39924°
Altitude
548.106 km
Speed
7.589 km/s
True Right ascension
11h 26m 36s
True Declination
0° 00' 00"
Sunlit
Object was in full shadow at epoch
Visualization orbit readout
Latitude
Unknown
Longitude
Unknown
Altitude
Unknown
Speed
Unknown
Apparent Right ascension
Unknown
Apparent Declination
Unknown
Sunlit
N/A
Visualization observer readout
Local Sidereal Time
18:29:45
Azimuth
Unknown
Elevation
Unknown
Doppler factor
Unknown
Orbital elements
Apogee altitude
548.211 km
Perigee altitude
546.686 km
Semi-major axis
6,925.586 km
Eccentricity
0.00011
Inclination
53.0557°
RAAN
171.6527°
Arg. of periapsis
93.7241°
True anomaly
266.37481°
Mean anomaly
266.3874°
Eccentric anomaly
266.3811°
Mean motion
3.76581 °/min
Orbital period
95.6 mins
BSTAR
-0.000036516
Loading maneuver chart data...
Computing Atmospheric mass density...
Loading historical data...
Loading historical data...
Loading historical data...
Loading historical data...
Loading historical data...
Loading historical data...
Loading historical data...

Documentation

Showing up to 5 results
|